| time (UTC) | temp C | wind direction | speed KPH | gust KPH | rain 1hr cm | rain 24hr cm | rain mn cm | humidity % | barometer mb |
| 20260510214102 | 18 | 214 | 3.2 | 4.8 | 0.00 | 0.00 | 0.00 | 80 | 1019.5 |
| 20260510213559 | 18 | 181 | 1.6 | 4.8 | 0.00 | 0.00 | 0.00 | 80 | 1019.3 |
| 20260510213055 | 18 | 207 | 3.2 | 4.8 | 0.00 | 0.00 | 0.00 | 80 | 1019.3 |
| 20260510212552 | 18 | 218 | 3.2 | 6.4 | 0.00 | 0.00 | 0.00 | 79 | 1019.3 |
| 20260510212050 | 19 | 198 | 1.6 | 4.8 | 0.00 | 0.00 | 0.00 | 82 | 1019.3 |
| 20260510211546 | 18 | 141 | 0.0 | 6.4 | 0.00 | 0.00 | 0.00 | 80 | 1019.1 |
| 20260510211040 | 18 | 161 | 3.2 | 4.8 | 0.00 | 0.00 | 0.00 | 79 | 1019.0 |
| 20260510210537 | 19 | 204 | 4.8 | 4.8 | 0.00 | 0.00 | 0.00 | 79 | 1019.2 |
| 20260510210032 | 20 | 173 | 0.0 | 4.8 | 0.00 | 0.00 | 0.00 | 79 | 1019.0 |
| 20260510205531 | 20 | 185 | 3.2 | 4.8 | 0.00 | 0.00 | 0.00 | 77 | 1018.9 |
| 20260510205027 | 20 | 178 | 4.8 | 4.8 | 0.00 | 0.00 | 0.00 | 78 | 1019.0 |
| 20260510204524 | 19 | 175 | 3.2 | 4.8 | 0.00 | 0.00 | 0.00 | 77 | 1019.0 |
| 20260510204021 | 19 | 207 | 3.2 | 6.4 | 0.00 | 0.00 | 0.00 | 75 | 1018.8 |
| 20260510203518 | 20 | 214 | 1.6 | 3.2 | 0.00 | 0.00 | 0.00 | 76 | 1018.9 |
| 20260510203014 | 20 | 141 | 3.2 | 4.8 | 0.00 | 0.00 | 0.00 | 73 | 1018.7 |
| 20260510202513 | 20 | 232 | 3.2 | 6.4 | 0.00 | 0.00 | 0.00 | 68 | 1018.9 |
| 20260510202010 | 20 | 306 | 3.2 | 8.0 | 0.00 | 0.00 | 0.00 | 65 | 1018.8 |
| 20260510201508 | 20 | 5 | 3.2 | 4.8 | 0.00 | 0.00 | 0.00 | 68 | 1018.9 |
| 20260510201004 | 21 | 264 | 6.4 | 6.4 | 0.00 | 0.00 | 0.00 | 68 | 1018.8 |
| 20260510200459 | 21 | 266 | 3.2 | 9.7 | 0.00 | 0.00 | 0.00 | 63 | 1018.6 |
| 20260510195957 | 21 | 3 | 0.0 | 6.4 | 0.00 | 0.00 | 0.00 | 68 | 1018.7 |
| 20260510195455 | 21 | 251 | 3.2 | 6.4 | 0.00 | 0.00 | 0.00 | 65 | 1018.8 |
| 20260510194950 | 21 | 313 | 3.2 | 9.7 | 0.00 | 0.00 | 0.00 | 65 | 1018.8 |
| 20260510194447 | 21 | 238 | 4.8 | 4.8 | 0.00 | 0.00 | 0.00 | 66 | 1019.1 |
| 20260510193942 | 21 | 256 | 8.0 | 9.7 | 0.00 | 0.00 | 0.00 | 68 | 1018.9 |
| 20260510193438 | 21 | 276 | 1.6 | 6.4 | 0.00 | 0.00 | 0.00 | 67 | 1019.1 |
| 20260510192933 | 20 | 242 | 3.2 | 6.4 | 0.00 | 0.00 | 0.00 | 72 | 1019.1 |
| 20260510192429 | 20 | 290 | 0.0 | 8.0 | 0.00 | 0.00 | 0.00 | 70 | 1019.1 |
| 20260510191925 | 20 | 235 | 3.2 | 4.8 | 0.00 | 0.00 | 0.00 | 72 | 1019.0 |
| 20260510191421 | 20 | 272 | 3.2 | 6.4 | 0.00 | 0.00 | 0.00 | 72 | 1019.3 |
| 20260510190918 | 19 | 270 | 0.0 | 3.2 | 0.00 | 0.00 | 0.00 | 76 | 1019.4 |
| 20260510190416 | 18 | 262 | 3.2 | 6.4 | 0.00 | 0.00 | 0.00 | 77 | 1019.5 |
| 20260510185912 | 18 | 344 | 0.0 | 3.2 | 0.00 | 0.00 | 0.00 | 77 | 1019.3 |
| 20260510185410 | 18 | 64 | 1.6 | 3.2 | 0.00 | 0.00 | 0.00 | 80 | 1019.5 |
| 20260510184907 | 18 | 222 | 0.0 | 3.2 | 0.00 | 0.00 | 0.00 | 79 | 1019.4 |
| 20260510184404 | 18 | 102 | 3.2 | 4.8 | 0.00 | 0.00 | 0.00 | 79 | 1019.4 |
| 20260510183903 | 18 | 158 | 0.0 | 3.2 | 0.00 | 0.00 | 0.00 | 79 | 1019.3 |
| 20260510183400 | 18 | 303 | 0.0 | 1.6 | 0.00 | 0.00 | 0.00 | 75 | 1019.4 |
| 20260510182855 | 19 | 196 | 0.0 | 1.6 | 0.00 | 0.00 | 0.00 | 76 | 1019.4 |
| 20260510182352 | 19 | 32 | 3.2 | 3.2 | 0.00 | 0.00 | 0.00 | 72 | 1019.2 |
| 20260510181847 | 20 | 262 | 4.8 | 4.8 | 0.00 | 0.00 | 0.00 | 70 | 1019.3 |
| 20260510181345 | 20 | 346 | 0.0 | 3.2 | 0.00 | 0.00 | 0.00 | 70 | 1019.3 |
| 20260510180841 | 20 | 9 | 0.0 | 3.2 | 0.00 | 0.00 | 0.00 | 71 | 1019.2 |
| 20260510180338 | 21 | 337 | 0.0 | 6.4 | 0.00 | 0.00 | 0.00 | 69 | 1019.3 |
| 20260510175835 | 20 | 261 | 0.0 | 1.6 | 0.00 | 0.00 | 0.00 | 73 | 1019.3 |
| 20260510175331 | 20 | 13 | 0.0 | 4.8 | 0.00 | 0.00 | 0.00 | 69 | 1019.4 |
| 20260510174827 | 20 | 282 | 0.0 | 8.0 | 0.00 | 0.00 | 0.00 | 70 | 1019.5 |
| 20260510174325 | 20 | 252 | 3.2 | 4.8 | 0.00 | 0.00 | 0.00 | 68 | 1019.3 |
| 20260510173821 | 20 | 97 | 0.0 | 4.8 | 0.00 | 0.00 | 0.00 | 71 | 1019.3 |
| 20260510173317 | 20 | 178 | 0.0 | 3.2 | 0.00 | 0.00 | 0.00 | 75 | 1019.5 |
| 20260510172813 | 20 | 195 | 4.8 | 6.4 | 0.00 | 0.00 | 0.00 | 71 | 1019.5 |
| 20260510172309 | 19 | 262 | 0.0 | 3.2 | 0.00 | 0.00 | 0.00 | 73 | 1019.3 |
| 20260510171807 | 19 | 119 | 1.6 | 3.2 | 0.00 | 0.00 | 0.00 | 75 | 1019.4 |
| 20260510171304 | 19 | 357 | 3.2 | 6.4 | 0.00 | 0.00 | 0.00 | 76 | 1019.2 |
| 20260510170801 | 20 | 213 | 3.2 | 3.2 | 0.00 | 0.00 | 0.00 | 72 | 1019.4 |
| 20260510170257 | 19 | 346 | 3.2 | 11.3 | 0.00 | 0.00 | 0.00 | 74 | 1019.5 |
| 20260510165752 | 18 | 244 | 3.2 | 4.8 | 0.00 | 0.00 | 0.00 | 77 | 1019.3 |
| 20260510165248 | 18 | 244 | 6.4 | 6.4 | 0.00 | 0.00 | 0.00 | 78 | 1019.4 |
| 20260510164746 | 18 | 101 | 1.6 | 6.4 | 0.00 | 0.00 | 0.00 | 77 | 1019.4 |
| 20260510164243 | 18 | 273 | 4.8 | 6.4 | 0.00 | 0.00 | 0.00 | 78 | 1019.4 |
| 20260510163738 | 17 | 343 | 1.6 | 3.2 | 0.00 | 0.00 | 0.00 | 81 | 1019.6 |
| 20260510163234 | 16 | 125 | 1.6 | 3.2 | 0.00 | 0.00 | 0.00 | 84 | 1019.7 |
| 20260510162733 | 16 | 247 | 0.0 | 3.2 | 0.00 | 0.00 | 0.00 | 87 | 1019.5 |
| 20260510162231 | 16 | 213 | 3.2 | 6.4 | 0.00 | 0.00 | 0.00 | 86 | 1019.7 |
| 20260510161726 | 15 | 182 | 3.2 | 4.8 | 0.00 | 0.00 | 0.00 | 87 | 1019.7 |
| 20260510161223 | 16 | 61 | 3.2 | 3.2 | 0.00 | 0.00 | 0.00 | 85 | 1019.7 |
| 20260510160720 | 16 | 70 | 0.0 | 4.8 | 0.00 | 0.00 | 0.00 | 86 | 1019.6 |
| 20260510160215 | 16 | 79 | 1.6 | 3.2 | 0.00 | 0.00 | 0.00 | 87 | 1019.8 |
| 20260510155711 | 15 | 48 | 0.0 | 3.2 | 0.00 | 0.00 | 0.00 | 89 | 1019.8 |
| 20260510155207 | 15 | 224 | 0.0 | 4.8 | 0.00 | 0.00 | 0.00 | 89 | 1019.8 |
| 20260510154703 | 15 | 277 | 0.0 | 1.6 | 0.00 | 0.00 | 0.00 | 91 | 1019.7 |
| 20260510154159 | 15 | 181 | 0.0 | 3.2 | 0.00 | 0.00 | 0.00 | 90 | 1019.7 |
| 20260510153654 | 15 | 139 | 0.0 | 3.2 | 0.00 | 0.00 | 0.00 | 91 | 1019.6 |
| 20260510153151 | 15 | 262 | 0.0 | 4.8 | 0.00 | 0.00 | 0.00 | 92 | 1020.0 |
| 20260510152647 | 14 | 355 | 3.2 | 3.2 | 0.00 | 0.00 | 0.00 | 93 | 1020.0 |
| 20260510152143 | 13 | 234 | 3.2 | 6.4 | 0.00 | 0.00 | 0.00 | 94 | 1020.0 |
| 20260510151640 | 13 | 267 | 3.2 | 4.8 | 0.00 | 0.00 | 0.00 | 94 | 1020.0 |
| 20260510151139 | 13 | 231 | 3.2 | 6.4 | 0.00 | 0.00 | 0.00 | 95 | 1020.0 |
| 20260510150634 | 13 | 217 | 3.2 | 3.2 | 0.00 | 0.00 | 0.00 | 95 | 1020.1 |
| 20260510150130 | 13 | 218 | 3.2 | 3.2 | 0.00 | 0.00 | 0.00 | 95 | 1020.0 |
| 20260510145626 | 13 | 256 | 0.0 | 4.8 | 0.00 | 0.00 | 0.00 | 95 | 1020.1 |
| 20260510145123 | 13 | 99 | 0.0 | 3.2 | 0.00 | 0.00 | 0.00 | 95 | 1020.0 |
| 20260510144619 | 13 | 239 | 0.0 | 3.2 | 0.00 | 0.00 | 0.00 | 96 | 1020.0 |
| 20260510144115 | 13 | 238 | 0.0 | 3.2 | 0.00 | 0.00 | 0.00 | 96 | 1019.8 |
| 20260510143610 | 12 | 255 | 1.6 | 4.8 | 0.00 | 0.00 | 0.00 | 97 | 1019.8 |
| 20260510143107 | 13 | 207 | 3.2 | 3.2 | 0.00 | 0.00 | 0.00 | 97 | 1019.9 |
| 20260510142604 | 12 | 253 | 1.6 | 4.8 | 0.00 | 0.00 | 0.00 | 98 | 1019.7 |
| 20260510142100 | 13 | 244 | 0.0 | 0.0 | 0.00 | 0.00 | 0.00 | 99 | 1019.5 |
| 20260510141557 | 12 | 295 | 0.0 | 1.6 | 0.00 | 0.00 | 0.00 | 99 | 1019.6 |
| 20260510141056 | 12 | 161 | 1.6 | 3.2 | 0.00 | 0.00 | 0.00 | 99 | 1019.8 |
| 20260510140551 | 12 | 204 | 0.0 | 3.2 | 0.00 | 0.00 | 0.00 | 99 | 1019.7 |
| 20260510140050 | 12 | 126 | 0.0 | 3.2 | 0.00 | 0.00 | 0.00 | 99 | 1019.8 |
| 20260510135547 | 12 | 251 | 0.0 | 3.2 | 0.00 | 0.00 | 0.00 | 99 | 1019.8 |
| 20260510135043 | 12 | 156 | 1.6 | 3.2 | 0.00 | 0.00 | 0.00 | 99 | 1019.5 |
| 20260510134540 | 12 | 265 | 0.0 | 1.6 | 0.00 | 0.00 | 0.00 | 99 | 1019.6 |
| 20260510134037 | 11 | 139 | 0.0 | 3.2 | 0.00 | 0.00 | 0.00 | 99 | 1019.5 |
| 20260510133533 | 11 | 239 | 3.2 | 3.2 | 0.00 | 0.00 | 0.00 | 99 | 1019.6 |
| 20260510133029 | 11 | 200 | 0.0 | 3.2 | 0.00 | 0.00 | 0.00 | 99 | 1019.4 |
| 20260510132526 | 12 | 219 | 0.0 | 1.6 | 0.00 | 0.00 | 0.00 | 99 | 1019.2 |
| 20260510132023 | 11 | 151 | 0.0 | 0.0 | 0.00 | 0.00 | 0.00 | 99 | 1019.2 |
| 20260510131521 | 11 | 267 | 0.0 | 3.2 | 0.00 | 0.00 | 0.00 | 99 | 1019.2 |
| 20260510131018 | 11 | 268 | 0.0 | 1.6 | 0.00 | 0.00 | 0.00 | 99 | 1019.3 |
| 20260510130514 | 11 | 195 | 3.2 | 4.8 | 0.00 | 0.00 | 0.00 | 99 | 1019.2 |
| 20260510130012 | 11 | 169 | 0.0 | 0.0 | 0.00 | 0.00 | 0.00 | 99 | 1019.4 |
| 20260510125507 | 11 | 267 | 0.0 | 1.6 | 0.00 | 0.00 | 0.00 | 99 | 1019.6 |
| 20260510125004 | 11 | 169 | 0.0 | 0.0 | 0.00 | 0.00 | 0.00 | 99 | 1019.2 |
| 20260510124501 | 11 | 169 | 0.0 | 0.0 | 0.00 | 0.00 | 0.00 | 99 | 1019.4 |
| 20260510123958 | 11 | 270 | 0.0 | 1.6 | 0.00 | 0.00 | 0.00 | 99 | 1019.1 |
| 20260510123453 | 11 | 152 | 0.0 | 1.6 | 0.00 | 0.00 | 0.00 | 99 | 1019.1 |
| 20260510122950 | 11 | 300 | 0.0 | 1.6 | 0.00 | 0.00 | 0.00 | 99 | 1019.1 |
| 20260510122445 | 11 | 230 | 0.0 | 3.2 | 0.00 | 0.00 | 0.00 | 99 | 1019.1 |
| 20260510121941 | 11 | 113 | 0.0 | 0.0 | 0.00 | 0.00 | 0.00 | 99 | 1019.0 |
| 20260510121439 | 10 | 147 | 0.0 | 3.2 | 0.00 | 0.00 | 0.00 | 99 | 1019.0 |
| 20260510120936 | 11 | 313 | 0.0 | 1.6 | 0.00 | 0.00 | 0.00 | 99 | 1018.9 |
| 20260510120433 | 10 | 296 | 0.0 | 1.6 | 0.00 | 0.00 | 0.00 | 99 | 1018.9 |
| 20260510115929 | 10 | 266 | 1.6 | 3.2 | 0.00 | 0.00 | 0.00 | 99 | 1018.9 |
| 20260510115426 | 10 | 179 | 1.6 | 4.8 | 0.00 | 0.00 | 0.00 | 99 | 1018.9 |
| 20260510114916 | 10 | 300 | 0.0 | 4.8 | 0.00 | 0.00 | 0.00 | 99 | 1018.9 |
| 20260510114413 | 10 | 42 | 0.0 | 3.2 | 0.00 | 0.00 | 0.00 | 99 | 1018.7 |
| 20260510113908 | 10 | 116 | 0.0 | 3.2 | 0.00 | 0.00 | 0.00 | 99 | 1018.5 |
| 20260510113404 | 10 | 300 | 0.0 | 3.2 | 0.00 | 0.00 | 0.00 | 99 | 1018.4 |
| 20260510112901 | 10 | 155 | 0.0 | 4.8 | 0.00 | 0.00 | 0.00 | 99 | 1018.1 |
| 20260510112358 | 10 | 152 | 0.0 | 3.2 | 0.00 | 0.00 | 0.00 | 99 | 1018.5 |
| 20260510111855 | 10 | 266 | 0.0 | 1.6 | 0.00 | 0.00 | 0.00 | 99 | 1018.3 |
| 20260510111351 | 10 | 256 | 3.2 | 3.2 | 0.00 | 0.00 | 0.00 | 99 | 1018.4 |
| 20260510110847 | 10 | 293 | 0.0 | 1.6 | 0.00 | 0.00 | 0.00 | 99 | 1018.4 |
| 20260510110344 | 10 | 242 | 0.0 | 4.8 | 0.00 | 0.00 | 0.00 | 99 | 1018.2 |
| 20260510105840 | 10 | 233 | 3.2 | 4.8 | 0.00 | 0.00 | 0.00 | 99 | 1018.3 |
| 20260510105339 | 10 | 270 | 0.0 | 4.8 | 0.00 | 0.00 | 0.00 | 99 | 1018.4 |
| 20260510104836 | 10 | 218 | 0.0 | 3.2 | 0.00 | 0.00 | 0.00 | 99 | 1018.3 |
| 20260510104333 | 10 | 130 | 0.0 | 3.2 | 0.00 | 0.00 | 0.00 | 99 | 1018.4 |
| 20260510103829 | 10 | 124 | 0.0 | 3.2 | 0.00 | 0.00 | 0.00 | 99 | 1018.2 |
| 20260510103326 | 10 | 241 | 3.2 | 4.8 | 0.00 | 0.00 | 0.00 | 99 | 1018.2 |
| 20260510102822 | 10 | 149 | 1.6 | 4.8 | 0.00 | 0.00 | 0.00 | 99 | 1018.2 |
| 20260510102318 | 10 | 241 | 3.2 | 3.2 | 0.00 | 0.00 | 0.00 | 99 | 1018.0 |
| 20260510101815 | 10 | 166 | 1.6 | 3.2 | 0.00 | 0.00 | 0.00 | 99 | 1018.0 |
| 20260510101313 | 10 | 245 | 3.2 | 4.8 | 0.00 | 0.00 | 0.00 | 99 | 1018.2 |
| 20260510100809 | 10 | 308 | 0.0 | 3.2 | 0.00 | 0.00 | 0.00 | 99 | 1018.2 |
| 20260510100307 | 10 | 306 | 0.0 | 1.6 | 0.00 | 0.00 | 0.00 | 99 | 1018.0 |
| 20260510095802 | 10 | 191 | 1.6 | 3.2 | 0.00 | 0.00 | 0.00 | 99 | 1018.2 |
| 20260510095258 | 10 | 184 | 3.2 | 3.2 | 0.00 | 0.00 | 0.00 | 99 | 1018.2 |
| 20260510094756 | 10 | 139 | 0.0 | 3.2 | 0.00 | 0.00 | 0.00 | 99 | 1018.0 |
| 20260510094251 | 10 | 165 | 1.6 | 3.2 | 0.00 | 0.00 | 0.00 | 99 | 1018.1 |
| 20260510093748 | 10 | 220 | 0.0 | 3.2 | 0.00 | 0.00 | 0.00 | 99 | 1018.3 |
| 20260510093245 | 10 | 338 | 0.0 | 3.2 | 0.00 | 0.00 | 0.00 | 99 | 1018.5 |
| 20260510092741 | 10 | 315 | 0.0 | 1.6 | 0.00 | 0.00 | 0.00 | 99 | 1018.5 |
| 20260510092237 | 10 | 149 | 0.0 | 3.2 | 0.00 | 0.00 | 0.00 | 99 | 1018.4 |
| 20260510091733 | 10 | 236 | 0.0 | 3.2 | 0.00 | 0.00 | 0.00 | 99 | 1018.5 |
| 20260510091230 | 10 | 160 | 3.2 | 3.2 | 0.00 | 0.00 | 0.00 | 99 | 1018.4 |
| 20260510090726 | 10 | 120 | 0.0 | 1.6 | 0.00 | 0.00 | 0.00 | 99 | 1018.4 |
| 20260510090224 | 10 | 93 | 0.0 | 3.2 | 0.00 | 0.00 | 0.00 | 99 | 1018.5 |
| 20260510085718 | 10 | 131 | 0.0 | 0.0 | 0.00 | 0.00 | 0.00 | 99 | 1018.6 |
| 20260510085213 | 10 | 127 | 0.0 | 3.2 | 0.00 | 0.00 | 0.00 | 99 | 1018.5 |
| 20260510084710 | 10 | 124 | 0.0 | 3.2 | 0.00 | 0.00 | 0.00 | 99 | 1018.5 |
| 20260510084207 | 10 | 116 | 0.0 | 3.2 | 0.00 | 0.00 | 0.00 | 99 | 1018.6 |
| 20260510083704 | 10 | 160 | 0.0 | 3.2 | 0.00 | 0.00 | 0.00 | 99 | 1018.6 |
| 20260510083201 | 10 | 48 | 0.0 | 3.2 | 0.00 | 0.00 | 0.00 | 99 | 1018.9 |
| 20260510082656 | 10 | 338 | 3.2 | 3.2 | 0.00 | 0.00 | 0.00 | 99 | 1018.8 |
| 20260510082153 | 10 | 322 | 0.0 | 1.6 | 0.00 | 0.00 | 0.00 | 99 | 1018.6 |
| 20260510081648 | 10 | 263 | 0.0 | 3.2 | 0.00 | 0.00 | 0.00 | 99 | 1018.7 |
| 20260510081144 | 10 | 238 | 0.0 | 3.2 | 0.00 | 0.00 | 0.00 | 99 | 1018.8 |
| 20260510080643 | 10 | 305 | 0.0 | 3.2 | 0.00 | 0.00 | 0.00 | 99 | 1018.4 |
| 20260510080140 | 10 | 213 | 3.2 | 3.2 | 0.00 | 0.00 | 0.00 | 99 | 1018.2 |
| 20260510075637 | 10 | 309 | 0.0 | 1.6 | 0.00 | 0.00 | 0.00 | 99 | 1018.2 |
| 20260510075135 | 10 | 310 | 0.0 | 1.6 | 0.00 | 0.00 | 0.00 | 99 | 1017.8 |
| 20260510074631 | 10 | 311 | 0.0 | 1.6 | 0.00 | 0.00 | 0.00 | 99 | 1017.7 |
| 20260510074127 | 10 | 266 | 0.0 | 1.6 | 0.00 | 0.00 | 0.00 | 99 | 1017.6 |
| 20260510073624 | 10 | 142 | 0.0 | 1.6 | 0.00 | 0.00 | 0.00 | 99 | 1017.6 |
| 20260510073120 | 10 | 133 | 0.0 | 1.6 | 0.00 | 0.00 | 0.00 | 99 | 1017.9 |
| 20260510072616 | 10 | 168 | 1.6 | 1.6 | 0.00 | 0.00 | 0.00 | 99 | 1017.9 |
| 20260510072113 | 10 | 274 | 0.0 | 1.6 | 0.00 | 0.00 | 0.00 | 99 | 1017.8 |
| 20260510071608 | 10 | 153 | 0.0 | 1.6 | 0.00 | 0.00 | 0.00 | 99 | 1017.7 |
| 20260510071106 | 10 | 304 | 0.0 | 1.6 | 0.00 | 0.00 | 0.00 | 99 | 1017.8 |
| 20260510070558 | 10 | 101 | 0.0 | 1.6 | 0.00 | 0.00 | 0.00 | 99 | 1018.0 |
| 20260510070055 | 10 | 115 | 0.0 | 1.6 | 0.00 | 0.00 | 0.00 | 99 | 1018.0 |
| 20260510065551 | 10 | 293 | 0.0 | 1.6 | 0.00 | 0.00 | 0.00 | 99 | 1018.0 |
| 20260510065047 | 10 | 304 | 0.0 | 1.6 | 0.00 | 0.00 | 0.00 | 99 | 1018.0 |
| 20260510064543 | 10 | 99 | 0.0 | 1.6 | 0.00 | 0.00 | 0.00 | 99 | 1018.0 |
| 20260510064040 | 10 | 309 | 0.0 | 1.6 | 0.00 | 0.00 | 0.00 | 99 | 1017.9 |
| 20260510063538 | 10 | 142 | 0.0 | 0.0 | 0.00 | 0.00 | 0.00 | 99 | 1017.9 |
| 20260510063035 | 10 | 288 | 0.0 | 1.6 | 0.00 | 0.00 | 0.00 | 99 | 1017.9 |
| 20260510062530 | 10 | 300 | 0.0 | 3.2 | 0.00 | 0.00 | 0.00 | 99 | 1017.9 |
| 20260510062026 | 10 | 303 | 0.0 | 1.6 | 0.00 | 0.00 | 0.00 | 99 | 1017.9 |
| 20260510061522 | 10 | 322 | 0.0 | 0.0 | 0.00 | 0.00 | 0.00 | 99 | 1017.8 |
| 20260510061019 | 10 | 289 | 0.0 | 1.6 | 0.00 | 0.00 | 0.00 | 99 | 1017.8 |
| 20260510060516 | 10 | 300 | 0.0 | 0.0 | 0.00 | 0.00 | 0.00 | 99 | 1017.7 |
| 20260510060012 | 10 | 268 | 0.0 | 0.0 | 0.00 | 0.00 | 0.00 | 99 | 1017.7 |
| 20260510055508 | 10 | 260 | 1.6 | 3.2 | 0.00 | 0.00 | 0.00 | 99 | 1017.6 |
| 20260510055006 | 10 | 180 | 0.0 | 0.0 | 0.00 | 0.00 | 0.00 | 99 | 1017.4 |
| 20260510054502 | 10 | 208 | 1.6 | 1.6 | 0.00 | 0.00 | 0.00 | 99 | 1017.7 |
| 20260510053957 | 10 | 298 | 0.0 | 0.0 | 0.00 | 0.00 | 0.00 | 99 | 1017.7 |
| 20260510053452 | 10 | 277 | 0.0 | 0.0 | 0.00 | 0.00 | 0.00 | 99 | 1017.7 |
| 20260510052948 | 10 | 100 | 0.0 | 1.6 | 0.00 | 0.00 | 0.00 | 99 | 1017.6 |
| 20260510052444 | 10 | 123 | 1.6 | 3.2 | 0.00 | 0.00 | 0.00 | 99 | 1017.8 |
| 20260510051941 | 10 | 114 | 0.0 | 1.6 | 0.00 | 0.00 | 0.00 | 99 | 1017.9 |
| 20260510051436 | 10 | 133 | 0.0 | 1.6 | 0.00 | 0.00 | 0.00 | 99 | 1017.9 |
| 20260510050933 | 10 | 179 | 1.6 | 1.6 | 0.00 | 0.00 | 0.00 | 99 | 1017.8 |
| 20260510050430 | 10 | 277 | 0.0 | 1.6 | 0.00 | 0.00 | 0.00 | 99 | 1018.0 |
| 20260510045928 | 10 | 228 | 0.0 | 1.6 | 0.00 | 0.00 | 0.00 | 99 | 1018.0 |
| 20260510045425 | 10 | 142 | 0.0 | 1.6 | 0.00 | 0.00 | 0.00 | 99 | 1017.8 |
| 20260510044921 | 10 | 293 | 0.0 | 0.0 | 0.00 | 0.00 | 0.00 | 99 | 1017.9 |
| 20260510044418 | 10 | 250 | 0.0 | 1.6 | 0.00 | 0.00 | 0.00 | 99 | 1018.0 |
| 20260510043915 | 10 | 255 | 0.0 | 0.0 | 0.00 | 0.00 | 0.00 | 99 | 1017.9 |
| 20260510043411 | 10 | 293 | 0.0 | 0.0 | 0.00 | 0.00 | 0.00 | 99 | 1018.1 |
| 20260510042909 | 10 | 214 | 1.6 | 3.2 | 0.00 | 0.00 | 0.00 | 99 | 1018.1 |
| 20260510042405 | 10 | 253 | 0.0 | 3.2 | 0.00 | 0.00 | 0.00 | 99 | 1017.8 |
| 20260510041900 | 10 | 298 | 0.0 | 1.6 | 0.00 | 0.00 | 0.00 | 99 | 1017.6 |
| 20260510041358 | 10 | 294 | 0.0 | 1.6 | 0.00 | 0.00 | 0.00 | 99 | 1017.6 |
| 20260510040855 | 10 | 311 | 0.0 | 1.6 | 0.00 | 0.00 | 0.00 | 99 | 1017.8 |
| 20260510040353 | 10 | 126 | 0.0 | 1.6 | 0.00 | 0.00 | 0.00 | 99 | 1017.9 |
| 20260510035848 | 10 | 152 | 0.0 | 1.6 | 0.00 | 2.11 | 2.11 | 99 | 1017.7 |
| 20260510035344 | 10 | 318 | 0.0 | 1.6 | 0.00 | 2.11 | 2.11 | 99 | 1017.6 |
| 20260510034839 | 10 | 137 | 1.6 | 3.2 | 0.00 | 2.11 | 2.11 | 99 | 1017.4 |
| 20260510034338 | 10 | 156 | 0.0 | 1.6 | 0.00 | 2.11 | 2.11 | 99 | 1017.5 |
| 20260510033833 | 10 | 300 | 0.0 | 3.2 | 0.00 | 2.11 | 2.11 | 99 | 1017.5 |
| 20260510033330 | 10 | 319 | 0.0 | 1.6 | 0.00 | 2.11 | 2.11 | 99 | 1017.6 |
| 20260510032827 | 10 | 114 | 0.0 | 3.2 | 0.00 | 2.11 | 2.11 | 99 | 1017.6 |
| 20260510032324 | 10 | 96 | 0.0 | 1.6 | 0.00 | 2.11 | 2.11 | 99 | 1017.6 |
| 20260510031820 | 10 | 133 | 0.0 | 1.6 | 0.00 | 2.11 | 2.11 | 99 | 1017.7 |
| 20260510031315 | 10 | 277 | 0.0 | 3.2 | 0.00 | 2.11 | 2.11 | 99 | 1017.8 |
| 20260510030815 | 10 | 120 | 0.0 | 3.2 | 0.00 | 2.11 | 2.11 | 99 | 1017.8 |
| 20260510030312 | 10 | 286 | 1.6 | 3.2 | 0.00 | 2.11 | 2.11 | 99 | 1017.7 |
| 20260510025809 | 10 | 140 | 0.0 | 3.2 | 0.00 | 2.11 | 2.11 | 99 | 1017.7 |
| 20260510025306 | 10 | 164 | 0.0 | 1.6 | 0.00 | 2.11 | 2.11 | 99 | 1017.9 |
| 20260510024802 | 10 | 142 | 0.0 | 1.6 | 0.00 | 2.11 | 2.11 | 99 | 1017.9 |
| 20260510024300 | 10 | 294 | 1.6 | 3.2 | 0.00 | 2.11 | 2.11 | 99 | 1017.8 |
| 20260510023756 | 10 | 169 | 0.0 | 1.6 | 0.00 | 2.11 | 2.11 | 99 | 1017.8 |
| 20260510023252 | 10 | 120 | 0.0 | 3.2 | 0.00 | 2.11 | 2.11 | 99 | 1018.0 |
| 20260510022749 | 10 | 155 | 0.0 | 1.6 | 0.00 | 2.11 | 2.11 | 99 | 1017.8 |
| 20260510022244 | 10 | 265 | 1.6 | 3.2 | 0.00 | 2.11 | 2.11 | 99 | 1017.8 |
| 20260510021743 | 10 | 145 | 0.0 | 3.2 | 0.00 | 2.11 | 2.11 | 99 | 1017.7 |
| 20260510021242 | 10 | 70 | 0.0 | 3.2 | 0.00 | 2.11 | 2.11 | 99 | 1017.7 |
| 20260510020736 | 10 | 213 | 1.6 | 3.2 | 0.00 | 2.11 | 2.11 | 99 | 1017.6 |
| 20260510020236 | 10 | 233 | 0.0 | 1.6 | 0.00 | 2.11 | 2.11 | 99 | 1017.6 |
| 20260510015733 | 10 | 108 | 0.0 | 3.2 | 0.00 | 2.11 | 2.11 | 99 | 1017.5 |
| 20260510015229 | 10 | 131 | 3.2 | 3.2 | 0.00 | 2.11 | 2.11 | 99 | 1017.5 |
| 20260510014724 | 10 | 120 | 0.0 | 6.4 | 0.00 | 2.11 | 2.11 | 99 | 1017.7 |
| 20260510014222 | 10 | 311 | 0.0 | 1.6 | 0.00 | 2.11 | 2.11 | 99 | 1017.6 |
| 20260510013718 | 10 | 334 | 0.0 | 0.0 | 0.00 | 2.11 | 2.11 | 99 | 1017.5 |
| 20260510013214 | 10 | 6 | 0.0 | 0.0 | 0.00 | 2.11 | 2.11 | 99 | 1017.6 |
| 20260510012713 | 10 | 293 | 0.0 | 3.2 | 0.00 | 2.11 | 2.11 | 99 | 1017.6 |
| 20260510012209 | 10 | 349 | 0.0 | 0.0 | 0.00 | 2.11 | 2.11 | 99 | 1017.4 |
| 20260510011704 | 10 | 268 | 0.0 | 0.0 | 0.00 | 2.11 | 2.11 | 99 | 1017.3 |
| 20260510011200 | 11 | 286 | 0.0 | 0.0 | 0.00 | 2.11 | 2.11 | 99 | 1017.2 |
| 20260510010656 | 11 | 255 | 0.0 | 4.8 | 0.00 | 2.11 | 2.11 | 99 | 1017.0 |
| 20260510010153 | 11 | 299 | 0.0 | 1.6 | 0.00 | 2.11 | 2.11 | 99 | 1017.1 |
| 20260510005649 | 11 | 161 | 1.6 | 3.2 | 0.00 | 2.11 | 2.11 | 99 | 1017.0 |
| 20260510005146 | 10 | 160 | 0.0 | 1.6 | 0.00 | 2.11 | 2.11 | 99 | 1017.1 |
| 20260510004644 | 10 | 149 | 0.0 | 3.2 | 0.00 | 2.11 | 2.11 | 99 | 1017.0 |
| 20260510004142 | 10 | 149 | 0.0 | 0.0 | 0.00 | 2.11 | 2.11 | 99 | 1016.8 |
| 20260510003639 | 10 | 244 | 0.0 | 0.0 | 0.00 | 2.11 | 2.11 | 99 | 1017.0 |
| 20260510003135 | 10 | 244 | 0.0 | 0.0 | 0.00 | 2.11 | 2.11 | 99 | 1017.2 |
| 20260510002635 | 10 | 175 | 0.0 | 0.0 | 0.00 | 2.11 | 2.11 | 99 | 1017.0 |
| 20260510002132 | 11 | 142 | 0.0 | 0.0 | 0.00 | 2.11 | 2.11 | 99 | 1016.8 |
| 20260510001629 | 11 | 294 | 0.0 | 0.0 | 0.00 | 2.11 | 2.11 | 99 | 1016.7 |
| 20260510001128 | 11 | 64 | 0.0 | 0.0 | 0.00 | 2.11 | 2.11 | 99 | 1016.6 |
| 20260510000627 | 11 | 319 | 0.0 | 0.0 | 0.00 | 2.11 | 2.11 | 99 | 1016.6 |
| 20260510000125 | 11 | 349 | 0.0 | 1.6 | 0.00 | 2.11 | 2.11 | 99 | 1016.6 |
| 20260509235621 | 11 | 43 | 0.0 | 0.0 | 0.00 | 2.11 | 2.11 | 99 | 1016.7 |
| 20260509235118 | 11 | 191 | 0.0 | 1.6 | 0.00 | 2.11 | 2.11 | 99 | 1016.7 |
| 20260509234614 | 11 | 177 | 0.0 | 1.6 | 0.00 | 2.11 | 2.11 | 99 | 1017.0 |
| 20260509234112 | 11 | 0 | 0.0 | 0.0 | 0.00 | 2.11 | 2.11 | 99 | 1017.0 |
| 20260509233609 | 11 | 0 | 0.0 | 0.0 | 0.00 | 2.11 | 2.11 | 99 | 1017.1 |
| 20260509233106 | 11 | 274 | 0.0 | 0.0 | 0.00 | 2.11 | 2.11 | 99 | 1017.0 |
| 20260509232603 | 11 | 350 | 0.0 | 0.0 | 0.00 | 2.11 | 2.11 | 99 | 1016.9 |
| 20260509232100 | 11 | 313 | 0.0 | 0.0 | 0.00 | 2.11 | 2.11 | 99 | 1017.1 |
| 20260509231556 | 11 | 302 | 0.0 | 1.6 | 0.00 | 2.11 | 2.11 | 99 | 1017.3 |
| 20260509231054 | 11 | 264 | 1.6 | 1.6 | 0.00 | 2.11 | 2.11 | 99 | 1017.1 |
| 20260509230550 | 11 | 244 | 0.0 | 1.6 | 0.05 | 2.11 | 2.11 | 99 | 1017.2 |
| 20260509230048 | 11 | 344 | 0.0 | 0.0 | 0.13 | 2.11 | 2.11 | 99 | 1017.1 |
| 20260509225548 | 11 | 96 | 0.0 | 1.6 | 0.05 | 2.08 | 2.08 | 99 | 1017.4 |
| 20260509225044 | 11 | 236 | 3.2 | 3.2 | 0.05 | 2.08 | 2.08 | 99 | 1017.3 |
| 20260509224540 | 11 | 156 | 3.2 | 4.8 | 0.05 | 2.08 | 2.08 | 99 | 1017.4 |
| 20260509224037 | 11 | 307 | 3.2 | 4.8 | 0.13 | 2.06 | 2.06 | 99 | 1017.0 |
| 20260509223534 | 11 | 206 | 3.2 | 4.8 | 0.36 | 2.06 | 2.06 | 99 | 1016.9 |
| 20260509223032 | 11 | 173 | 3.2 | 3.2 | 0.53 | 2.06 | 2.06 | 99 | 1017.2 |
| 20260509222527 | 11 | 172 | 3.2 | 3.2 | 0.53 | 2.01 | 2.01 | 99 | 1017.5 |
| 20260509222023 | 11 | 216 | 3.2 | 3.2 | 0.53 | 1.96 | 1.96 | 99 | 1017.7 |
| 20260509221519 | 12 | 82 | 0.0 | 3.2 | 0.48 | 1.91 | 1.91 | 99 | 1017.6 |
| 20260509221015 | 12 | 285 | 1.6 | 3.2 | 0.43 | 1.85 | 1.85 | 99 | 1017.6 |
| 20260509220512 | 12 | 212 | 1.6 | 3.2 | 0.61 | 1.83 | 1.83 | 99 | 1017.4 |
| 20260509220008 | 12 | 149 | 0.0 | 4.8 | 0.61 | 1.78 | 1.78 | 99 | 1017.7 |
| 20260509215503 | 12 | 182 | 3.2 | 4.8 | 0.48 | 1.70 | 1.70 | 99 | 1017.8 |
| 20260509215001 | 12 | 106 | 0.0 | 3.2 | 0.66 | 1.68 | 1.68 | 99 | 1017.8 |